一网星座-0650星 (ONEWEB-0650)

导读 | 豆包AI

ONEWEB-0650是英国OneWeb公司低轨宽带互联网星座的组网卫星之一,于2023年3月9日由SpaceX猎鹰9号火箭在美国卡纳维拉尔角发射升空,属于OneWeb第17次组网发射任务的40颗卫星之一。该卫星运行于低地球轨道,为全球提供高速宽带互联网服务,覆盖偏远地区、海上及应急通信等场景,助力OneWeb完成近600颗卫星的初步星座部署。

Basic Information
目录编号:
55813
目录名称:
ONEWEB-0650
国际标识:
2023-029T
轨道中心:
EARTH
卫星名称:
一网星座-0650星
卫星全名:
一网星座-0650星 (ONEWEB-0650)
卫星状态:
在轨 (已飞行1150 天)
发射日期:
2023-03-09 UTC
国别 :
英国 (GB)
星等 :
--
Orbit Information
数据来源 国际轨道数据 AOE轨道数据
星历时间 2026-05-02T07:32:48+0800
11小时前
查看轨道信息
2026-05-02T09:00:00+0800
10小时前
查看轨道信息
半长轴 7563.909km 7563.916km
偏心率 0.0001782 0.0001522
轨道倾角 87.915° 87.914°
近地点辐角 74.175° 70.922°
升交点赤经 314.192° 314.180°
平近点角 285.958° 216.727°
近地点 1184.424km 1184.627km
远地点 1187.12km 1186.931km
周期 109.114分钟 109.114分钟
每日圈数 13.197247 13.197228
Detailed Information
平衡模式:
三轴稳定
覆盖范围:
全球
运营商:
一网卫星公司
运营商所在国:
英国
制造商(研发单位):
一网卫星公司
制造商所在国:
英国
使用方式:
暂无
Satellite Introduction
OneWeb卫星网络由648颗重约125公斤的微型卫星组成,运行在1200公里的轨道上。 每颗卫星都能够提供至少每秒8千兆位的吞吐量,以使用其高吞吐量的Ku频段有效载荷为家庭和移动平台提供互联网接入。该卫星仍在工作。
2D Orbit Map
3D Orbit Map
Orbit Altitude Analysis Chart
Orbit Inclination Analysis Chart
Orbit Comprehensive Analysis Chart
View Comprehensive Chart